[[{"header":{"parameterUnit":"m.s-1","parameterCategory":1,"la1":30.2991,"la2":30.254,"lo1":-89.0895,"lo2":-89.0444,"dy":0.0017,"dx":0.0017,"nx":28,"ny":28,"refTime":"2024-08-31T09:00:00:Z","depth":0,"parameterNumber":2,"parameterNumberName":"U-component_of_WINDS"},"data":[0,0,0,0,0,0,0,0,0,0,0,0,0,0,0,0,0,0,0,0,0,0,0,0,0,0,0,0,0,0,0,0,0,0,0,0,0,0,0,0,0,0,0,0,0,0,0,0,0,0,0,0,0,0,0,0,0,0,-4.1508,-4.151,0,-4.1721,-4.1723,-4.1726,-4.1747,-4.1745,-4.1743,-4.1741,-4.1955,-4.1963,-4.197,0,0,0,0,0,0,0,0,0,0,0,0,0,-4.1117,-4.1124,-4.1507,-4.151,-4.1513,-4.172,-4.1723,-4.1726,-4.1748,-4.1745,-4.1742,-4.174,-4.1953,-4.1962,-4.1971,0,0,0,0,0,0,0,0,0,0,0,0,0,-4.1304,-4.1127,-4.1507,-4.1549,-4.1554,-4.172,-4.1723,-4.1727,-4.1748,-4.1745,-4.1741,-4.1738,-4.1949,-4.1961,-4.1972,-4.2109,0,0,-4.2008,-4.2013,0,0,0,0,0,0,0,0,-4.1293,-4.1318,-4.154,-4.1546,-4.1553,-4.1704,-4.1664,-4.1855,-4.1749,-4.1674,-4.1741,-4.1737,-4.1874,-4.1892,-4.1939,-4.212,-4.2129,-4.2009,-4.2016,-4.2021,-4.2024,0,0,0,0,0,0,0,-4.128,-4.1309,-4.1592,-4.1543,-4.1551,-4.1556,-4.1579,-4.1701,-4.179,-4.1681,-4.1683,-4.1708,-4.1877,-4.1927,-4.1944,-4.2132,-4.2008,-4.2019,-4.2026,-4.203,-4.2439,-4.2443,0,0,0,0,0,0,-4.126,-4.1298,-4.1585,-4.1598,-4.1413,-4.1566,-4.1591,-4.1659,-4.1789,-4.1805,-4.171,-4.1708,-4.1909,-4.193,-4.1951,-4.2122,-4.2021,-4.2032,-4.2038,-4.2435,-4.244,-4.2444,0,0,0,0,0,0,-4.1252,-4.1285,-4.1576,-4.1449,-4.1486,-4.1576,-4.1651,-4.1665,-4.1715,-4.1811,-4.1827,-4.1746,-4.1907,-4.1935,-4.2071,-4.2129,-4.2037,-4.2047,-4.243,-4.2436,-4.2442,-4.2462,0,0,0,0,0,0,-4.124,-4.1282,-4.1335,-4.145,-4.1493,-4.1692,-4.1655,-4.1671,-4.1736,-4.1735,-4.1848,-4.1864,-4.1907,-4.2053,-4.2082,-4.2144,-4.2056,-4.2426,-4.2433,-4.244,-4.2457,-4.2468,-4.2478,0,0,0,0,0,-4.1226,-4.1331,-4.1338,-4.1372,-4.1562,-4.1696,-4.172,-4.1768,-4.174,-4.1794,-4.1857,-4.186,-4.2119,-4.2067,-4.21,-4.2165,-4.2422,-4.2431,-4.2439,-4.2452,-4.2466,-4.2478,0,0,0,0,0,0,-4.1218,-4.1347,-4.1356,-4.1501,-4.1588,-4.1699,-4.1768,-4.1781,-4.1876,-4.1871,-4.1926,-4.1952,-4.2086,-4.214,-4.208,-4.2307,-4.2268,-4.2283,-4.2266,-4.228,-4.229,-4.2273,-4.2066,0,0,0,0,0,-4.1234,-4.1333,-4.144,-4.1558,-4.1601,-4.1678,-4.1738,-4.1768,-4.1859,-4.1895,-4.1967,-4.2055,-4.2156,-4.2221,-4.232,-4.2466,-4.2491,-4.2528,-4.2538,-4.2546,-4.2558,-4.2641,-4.2659,-4.2473,-4.2473,-4.2472,0,0,-4.1266,-4.1349,-4.1407,-4.1558,-4.1629,-4.173,-4.1708,-4.1815,-4.189,-4.1911,-4.2044,-4.2101,-4.2202,-4.2344,-4.2411,-4.2393,-4.2616,-4.2557,-4.2563,-4.2571,-4.2652,-4.267,-4.2685,-4.2479,-4.2477,-4.2477,0,0,-4.1376,-4.1449,-4.1556,-4.1628,-4.1737,-4.1788,-4.1813,-4.1925,-4.1963,-4.2099,-4.2117,-4.2208,-4.238,-4.2453,-4.2512,-4.2655,-4.2662,-4.2685,-4.2739,-4.282,-4.2834,-4.2847,-4.2898,-4.2916,-4.2698,-4.2698,-4.2698,0,-4.1401,-4.1555,-4.1608,-4.1717,-4.1783,-4.181,-4.1918,-4.1986,-4.212,-4.2165,-4.2145,-4.2364,-4.2434,-4.2594,-4.263,-4.2677,-4.2708,-4.2671,-4.2828,-4.2842,-4.2855,-4.2904,-4.2923,-4.27,-4.27,-4.2699,-4.2699,0,-4.1582,-4.1689,-4.1762,-4.1894,-4.1969,-4.2076,-4.2146,-4.2215,-4.224,-4.2293,-4.2432,-4.2518,-4.2635,-4.2676,-4.27,-4.284,-4.2827,-4.2817,-4.2778,-4.2874,-4.2921,-4.294,-4.2703,-4.2702,-4.2701,-4.2701,0,0,-4.1688,-4.1852,-4.1877,-4.1939,-4.2062,-4.2146,-4.2256,-4.2372,-4.2431,-4.2524,-4.2617,-4.2766,-4.2758,-4.2826,-4.2859,-4.293,-4.3038,-4.2912,-4.2915,-4.2932,-4.3199,-4.3205,-4.3225,-4.3046,-4.3049,-4.3052,-4.319,0,-4.1812,-4.2009,-4.2062,-4.2229,-4.2329,-4.2358,-4.2454,-4.2541,-4.2595,-4.2687,-4.2746,-4.285,-4.2833,-4.2874,-4.2946,-4.301,-4.3092,-4.3001,-4.3132,-4.3136,-4.3104,-4.325,-4.3256,-4.3381,-4.3209,-4.3212,-4.3215,0,-4.1981,-4.208,-4.2258,-4.2372,-4.2416,-4.2501,-4.2614,-4.2702,-4.2801,-4.2836,-4.2913,-4.2941,-4.3058,-4.3015,-4.3176,-4.3113,-4.3171,-4.3211,-4.3217,-4.3229,-4.3179,-4.3265,-4.3423,-4.3441,-4.3244,-4.3242,-4.324,0,-4.204,-4.2218,-4.2348,-4.24,-4.2536,-4.2595,-4.2655,-4.2751,-4.2819,-4.2918,-4.2962,-4.3073,-4.3133,-4.3218,-4.3275,-4.3239,-4.3432,-4.3394,-4.3463,-4.3462,-4.35,-4.3497,-4.3668,-4.354,-4.354,-4.3539,-4.3539,0,-4.2171,-4.2278,-4.2377,-4.2457,-4.2579,-4.264,-4.2758,-4.2819,-4.2905,-4.2997,-4.3029,-4.3115,-4.3186,-4.3282,-4.3328,-4.3455,-4.3482,-4.3512,-4.3523,-4.3509,-4.3505,-4.3545,-4.3537,-4.3544,-4.3543,-4.3542,-4.3541,0,-4.2256,-4.2327,-4.247,-4.2589,-4.2622,-4.2706,-4.2808,-4.2887,-4.2943,-4.306,-4.309,-4.3179,-4.3293,-4.336,-4.3504,-4.3535,-4.3676,-4.3683,-4.3642,-4.3647,-4.3712,-4.3704,-4.3914,-4.3944,-4.3797,-4.3798,-4.3799,0,-4.2334,-4.2418,-4.2547,-4.2612,-4.2673,-4.2777,-4.2847,-4.2912,-4.2983,-4.3106,-4.317,-4.3287,-4.3384,-4.3565,-4.3642,-4.3753,-4.3763,-4.3829,-4.3779,-4.3763,-4.3763,-4.3757,-4.3766,-4.3836,-4.3837,-4.3838,-4.3839,0,-4.2465,-4.2497,-4.2598,-4.2712,-4.2796,-4.2889,-4.2981,-4.3032,-4.3112,-4.3191,-4.331,-4.3386,-4.3535,-4.365,-4.3769,-4.3829,-4.3848,-4.3855,-4.3877,-4.3862,-4.3834,-4.385,-4.3664,-4.3849,-4.3848,-4.3847,-4.3847,-4.3846,-4.2548,-4.2625,-4.2729,-4.2841,-4.2918,-4.3004,-4.3085,-4.3154,-4.3254,-4.3381,-4.3414,-4.3538,-4.3639,-4.38,-4.3864,-4.3963,-4.3952,-4.3983,-4.3991,-4.3997,-4.3999,-4.3821,-4.3985,-4.3985,-4.3984,-4.3984,-4.3984,0,-4.268,-4.275,-4.2853,-4.2982,-4.3071,-4.3084,-4.3187,-4.326,-4.337,-4.3463,-4.3559,-4.3697,-4.3811,-4.3898,-4.4015,-4.4077,-4.4089,-4.4106,-4.4101,-4.4115,-4.4002,-4.3972,-4.4095,-4.4095,-4.4095,-4.4095,-4.4094,-4.4094,-4.2759,-4.289,-4.2935,-4.3105,-4.3174,-4.3298,-4.3356,-4.3436,-4.3511,-4.3664,-4.3759,-4.3817,-4.3908,-4.4033,-4.4138,-4.4161,-4.4202,-4.4218,-4.4242,-4.4134,-4.4122,-4.4111,-4.4082,-4.4226,-4.4226,-4.4346,-4.4347,-4.4348]},{"header":{"parameterUnit":"m.s-1","parameterCategory":1,"la1":30.2991,"la2":30.254,"lo1":-89.0895,"lo2":-89.0444,"dy":0.0017,"dx":0.0017,"nx":28,"ny":28,"refTime":"2024-08-31T09:00:00:Z","depth":0,"parameterNumber":3,"parameterNumberName":"V-component_of_WINDS"},"data":[0,0,0,0,0,0,0,0,0,0,0,0,0,0,0,0,0,0,0,0,0,0,0,0,0,0,0,0,0,0,0,0,0,0,0,0,0,0,0,0,0,0,0,0,0,0,0,0,0,0,0,0,0,0,0,0,0,0,2.866,2.8661,0,2.8718,2.8719,2.8719,2.8748,2.8748,2.8748,2.8748,2.8799,2.8801,2.8802,0,0,0,0,0,0,0,0,0,0,0,0,0,2.8567,2.8569,2.866,2.8661,2.8662,2.8718,2.8719,2.8719,2.8748,2.8748,2.8748,2.8748,2.8799,2.8801,2.8802,0,0,0,0,0,0,0,0,0,0,0,0,0,2.8614,2.857,2.866,2.8683,2.8685,2.8718,2.8719,2.872,2.8748,2.8748,2.8748,2.8748,2.8798,2.88,2.8802,2.8814,0,0,2.8809,2.881,0,0,0,0,0,0,0,0,2.8612,2.8618,2.8679,2.8681,2.8684,2.8726,2.8705,2.8751,2.8748,2.8724,2.8748,2.8748,2.8774,2.8778,2.8789,2.8817,2.8819,2.8809,2.881,2.8811,2.8812,0,0,0,0,0,0,0,2.8608,2.8615,2.8683,2.8679,2.8683,2.8688,2.8694,2.8714,2.8748,2.8726,2.8728,2.8735,2.8776,2.8787,2.879,2.882,2.8809,2.8811,2.8812,2.8813,2.8861,2.8861,0,0,0,0,0,0,2.8603,2.8613,2.8681,2.8684,2.8648,2.8689,2.8697,2.8712,2.8748,2.8753,2.8735,2.8736,2.8783,2.8788,2.8792,2.8809,2.8811,2.8813,2.8814,2.8861,2.8861,2.8861,0,0,0,0,0,0,2.86,2.8608,2.8679,2.8649,2.8659,2.8691,2.8708,2.8713,2.8725,2.8755,2.876,2.874,2.8784,2.8789,2.8809,2.8811,2.8814,2.8816,2.8861,2.8861,2.8861,2.8843,0,0,0,0,0,0,2.8598,2.8608,2.8614,2.8649,2.866,2.8696,2.8708,2.8714,2.8729,2.8731,2.8761,2.8766,2.8784,2.8806,2.8811,2.8814,2.8817,2.8861,2.8861,2.8861,2.8843,2.8842,2.8841,0,0,0,0,0,2.8594,2.8604,2.8614,2.8622,2.8669,2.8697,2.8703,2.8725,2.8729,2.8735,2.8754,2.8765,2.881,2.8808,2.8814,2.8817,2.886,2.8861,2.8861,2.8844,2.8842,2.8841,0,0,0,0,0,0,2.8565,2.8609,2.862,2.8643,2.8666,2.8701,2.8709,2.8723,2.8743,2.8744,2.8769,2.8775,2.8793,2.8807,2.8804,2.8831,2.8836,2.8838,2.8821,2.882,2.8819,2.8815,2.8819,0,0,0,0,0,2.8562,2.8583,2.862,2.8636,2.8647,2.8676,2.8689,2.8705,2.8728,2.8738,2.8759,2.8779,2.8798,2.881,2.8829,2.8845,2.8852,2.8851,2.885,2.8849,2.8849,2.8859,2.8859,2.8861,2.8861,2.8861,0,0,2.8554,2.8581,2.8592,2.8631,2.865,2.867,2.8684,2.8704,2.8718,2.874,2.8761,2.8777,2.8802,2.882,2.8829,2.8832,2.8851,2.8849,2.8848,2.8849,2.886,2.8859,2.8859,2.8861,2.8861,2.8861,0,0,2.855,2.8573,2.859,2.861,2.8641,2.8661,2.8665,2.8699,2.8711,2.8733,2.8751,2.8766,2.8798,2.8816,2.8829,2.8833,2.8844,2.8838,2.8833,2.8842,2.8842,2.8842,2.8844,2.8844,2.8839,2.8839,2.8839,0,2.8536,2.8569,2.8596,2.8616,2.8631,2.8656,2.8672,2.8689,2.8723,2.8733,2.8737,2.8779,2.8797,2.882,2.8821,2.8831,2.8835,2.8835,2.884,2.8841,2.8841,2.8843,2.8843,2.8838,2.8838,2.8838,2.8838,0,2.8549,2.8572,2.8581,2.8617,2.8634,2.8652,2.868,2.8693,2.8708,2.8726,2.8748,2.8771,2.8796,2.8802,2.8815,2.8827,2.8829,2.8836,2.8842,2.8839,2.8842,2.8842,2.8837,2.8837,2.8837,2.8838,0,0,2.8527,2.8581,2.8584,2.8601,2.8638,2.8654,2.8672,2.8699,2.871,2.8733,2.8748,2.8776,2.8784,2.8798,2.8813,2.8822,2.8824,2.8828,2.8829,2.8827,2.8839,2.8833,2.8834,2.8832,2.8832,2.8832,2.8837,0,2.8528,2.8566,2.8591,2.8617,2.8638,2.8662,2.8678,2.8701,2.8719,2.8737,2.8756,2.8775,2.8784,2.8793,2.8803,2.8822,2.8827,2.8822,2.8845,2.8845,2.8838,2.8835,2.8828,2.8831,2.8838,2.8838,2.8838,0,2.8535,2.8561,2.859,2.8626,2.8636,2.865,2.8677,2.8695,2.8721,2.8734,2.8751,2.8767,2.8786,2.8791,2.8816,2.8812,2.8823,2.8833,2.8834,2.8837,2.8841,2.8837,2.8833,2.8833,2.884,2.8839,2.8839,0,2.8516,2.8558,2.8581,2.8595,2.8638,2.8647,2.8665,2.8692,2.8707,2.873,2.8739,2.8763,2.8776,2.8793,2.8814,2.8816,2.8837,2.8843,2.8847,2.8846,2.885,2.8849,2.8847,2.8857,2.8857,2.8857,2.8857,0,2.8514,2.8531,2.8574,2.8588,2.8607,2.8636,2.8653,2.8672,2.8697,2.8713,2.8734,2.8749,2.8777,2.8794,2.8811,2.8829,2.8835,2.8844,2.8848,2.8842,2.8841,2.8849,2.8849,2.8857,2.8857,2.8857,2.8857,0,2.8496,2.8525,2.8553,2.8592,2.8602,2.8615,2.8647,2.8661,2.8681,2.8702,2.8709,2.8739,2.8761,2.8785,2.8814,2.8825,2.8842,2.8848,2.8834,2.8837,2.8839,2.8838,2.8842,2.8844,2.8852,2.8852,2.8852,0,2.8493,2.8507,2.8549,2.8564,2.8582,2.8605,2.8621,2.865,2.8665,2.8698,2.8707,2.8732,2.8753,2.8786,2.881,2.8832,2.8838,2.8838,2.8842,2.8836,2.8838,2.8837,2.8839,2.8837,2.8836,2.8836,2.8836,0,2.8484,2.8499,2.8524,2.8554,2.8574,2.8598,2.8622,2.8632,2.8665,2.8681,2.8706,2.8723,2.8755,2.8778,2.8804,2.8819,2.8832,2.8835,2.8837,2.8831,2.8823,2.8827,2.8831,2.8835,2.8835,2.8835,2.8835,2.8835,2.8473,2.8488,2.8521,2.8547,2.857,2.8593,2.8609,2.8632,2.8654,2.8684,2.8699,2.8724,2.875,2.8786,2.8802,2.882,2.8824,2.8826,2.8827,2.8827,2.8826,2.882,2.8824,2.8824,2.8824,2.8824,2.8825,0,2.8466,2.8489,2.8514,2.855,2.8571,2.8585,2.8614,2.8629,2.8652,2.8677,2.8698,2.8727,2.875,2.8776,2.88,2.881,2.8817,2.8815,2.8814,2.8818,2.8821,2.8817,2.8809,2.8809,2.8809,2.8809,2.8809,2.8809,2.8464,2.849,2.8509,2.8545,2.8567,2.8594,2.8609,2.863,2.865,2.8682,2.8703,2.8721,2.8746,2.8773,2.8795,2.8801,2.8809,2.8806,2.8814,2.8816,2.8818,2.8819,2.8815,2.8808,2.8808,2.881,2.881,2.881]}]]